�������l�o���
Date,Time,MP-1(��Sv/h),MP-2(��Sv/h),MP-3(��Sv/h),MP-4(��Sv/h),MP-5(��Sv/h),MP-6(��Sv/h),MP-7(��Sv/h),MP-8(��Sv/h),����,����(m/s),���J
2023/05/06,00:00,0.575,0.840,0.505,1.053,0.747,0.330,0.586,0.549,��,7.9,��
2023/05/06,00:10,0.574,0.839,0.507,1.051,0.747,0.329,0.587,0.550,��,6.2,��
2023/05/06,00:20,0.575,0.840,0.506,1.051,0.747,0.330,0.586,0.550,��,6.4,��
2023/05/06,00:30,0.574,0.840,0.505,1.052,0.746,0.330,0.588,0.550,��,6.1,��
2023/05/06,00:40,0.574,0.839,0.505,1.053,0.746,0.329,0.588,0.551,��,6.9,��
2023/05/06,00:50,0.574,0.838,0.504,1.051,0.747,0.328,0.587,0.548,��,7.0,��
2023/05/06,01:00,0.574,0.840,0.505,1.051,0.745,0.328,0.588,0.550,��,5.6,��
2023/05/06,01:10,0.574,0.840,0.506,1.051,0.746,0.328,0.587,0.551,��,5.7,��
2023/05/06,01:20,0.574,0.840,0.505,1.051,0.746,0.329,0.588,0.550,��,5.6,��
2023/05/06,01:30,0.576,0.839,0.504,1.052,0.744,0.329,0.587,0.552,��,4.7,��
2023/05/06,01:40,0.575,0.840,0.505,1.053,0.745,0.328,0.588,0.551,��,5.3,��
2023/05/06,01:50,0.573,0.842,0.506,1.055,0.744,0.329,0.586,0.549,��,5.0,��
2023/05/06,02:00,0.575,0.841,0.505,1.051,0.744,0.329,0.588,0.550,��,4.9,��
2023/05/06,02:10,0.572,0.840,0.505,1.050,0.747,0.330,0.589,0.550,��,6.0,��
2023/05/06,02:20,0.573,0.840,0.504,1.051,0.745,0.329,0.587,0.549,��,5.2,��
2023/05/06,02:30,0.574,0.840,0.506,1.054,0.744,0.329,0.588,0.550,��,5.4,��
2023/05/06,02:40,0.572,0.840,0.505,1.052,0.745,0.329,0.587,0.550,��,4.8,��
2023/05/06,02:50,0.573,0.842,0.507,1.052,0.745,0.329,0.587,0.549,��,4.8,��
2023/05/06,03:00,0.572,0.839,0.506,1.054,0.744,0.330,0.589,0.549,��,5.7,��
2023/05/06,03:10,0.575,0.840,0.507,1.051,0.745,0.329,0.589,0.550,��,5.8,��
2023/05/06,03:20,0.573,0.839,0.506,1.052,0.745,0.329,0.586,0.552,��,7.0,��
2023/05/06,03:30,0.572,0.840,0.508,1.052,0.744,0.330,0.588,0.550,��,8.5,��
2023/05/06,03:40,0.573,0.839,0.507,1.053,0.743,0.329,0.587,0.549,��,6.9,��
2023/05/06,03:50,0.574,0.839,0.506,1.050,0.746,0.330,0.589,0.551,��쐼,7.9,��
2023/05/06,04:00,0.573,0.838,0.507,1.053,0.744,0.328,0.587,0.551,��,6.2,��
2023/05/06,04:10,0.573,0.838,0.506,1.052,0.745,0.329,0.589,0.552,��쓌,6.9,��
2023/05/06,04:20,0.574,0.838,0.505,1.053,0.745,0.329,0.587,0.550,��,5.4,��
2023/05/06,04:30,0.573,0.839,0.505,1.051,0.745,0.328,0.587,0.550,��,6.1,��
2023/05/06,04:40,0.573,0.840,0.505,1.051,0.746,0.329,0.588,0.551,��,6.6,��
2023/05/06,04:50,0.572,0.839,0.507,1.052,0.746,0.329,0.586,0.550,��,7.4,��
2023/05/06,05:00,0.573,0.838,0.506,1.051,0.744,0.329,0.587,0.550,��,7.0,��
2023/05/06,05:10,0.573,0.839,0.506,1.051,0.747,0.328,0.588,0.551,��,5.8,��
2023/05/06,05:20,0.574,0.838,0.506,1.050,0.745,0.330,0.587,0.551,��,6.5,��
2023/05/06,05:30,0.572,0.839,0.506,1.052,0.745,0.328,0.589,0.550,��,5.8,��
2023/05/06,05:40,0.571,0.838,0.507,1.052,0.746,0.329,0.588,0.550,��,6.5,��
2023/05/06,05:50,0.573,0.839,0.506,1.053,0.746,0.329,0.588,0.550,��,6.8,��
2023/05/06,06:00,0.575,0.839,0.506,1.052,0.746,0.330,0.588,0.551,��,6.5,��
2023/05/06,06:10,0.574,0.842,0.506,1.053,0.746,0.329,0.589,0.550,��,6.2,��
2023/05/06,06:20,0.573,0.840,0.504,1.054,0.746,0.328,0.585,0.551,��,5.6,��
2023/05/06,06:30,0.573,0.840,0.506,1.050,0.747,0.330,0.588,0.550,��,5.4,��
2023/05/06,06:40,0.575,0.838,0.505,1.051,0.746,0.329,0.586,0.551,��,5.9,��
2023/05/06,06:50,0.574,0.838,0.507,1.052,0.747,0.328,0.588,0.551,��,4.3,��
2023/05/06,07:00,0.574,0.838,0.507,1.053,0.746,0.328,0.587,0.550,��,3.0,��
2023/05/06,07:10,0.573,0.836,0.506,1.054,0.745,0.329,0.587,0.551,��,2.2,��
2023/05/06,07:20,0.572,0.837,0.506,1.054,0.748,0.327,0.587,0.549,��,2.8,��
2023/05/06,07:30,0.572,0.836,0.505,1.050,0.746,0.328,0.588,0.549,��,3.1,��
2023/05/06,07:40,0.571,0.835,0.505,1.052,0.746,0.328,0.586,0.549,��쓌,2.9,��
2023/05/06,07:50,0.572,0.835,0.506,1.054,0.744,0.328,0.587,0.548,��쓌,3.7,��
2023/05/06,08:00,0.573,0.836,0.504,1.051,0.745,0.329,0.586,0.547,��,4.5,��
2023/05/06,08:10,0.572,0.836,0.505,1.051,0.746,0.328,0.586,0.550,��,4.5,��
2023/05/06,08:20,0.572,0.837,0.507,1.051,0.744,0.328,0.586,0.550,��,3.0,��
2023/05/06,08:30,0.573,0.838,0.504,1.052,0.747,0.327,0.586,0.549,��,3.3,��
2023/05/06,08:40,0.573,0.837,0.506,1.052,0.744,0.328,0.587,0.549,��쓌,1.7,��
2023/05/06,08:50,0.573,0.837,0.505,1.053,0.746,0.329,0.586,0.550,��,1.1,��
2023/05/06,09:00,0.573,0.839,0.506,1.053,0.746,0.329,0.587,0.551,��쓌,1.5,��
2023/05/06,09:10,0.574,0.838,0.506,1.052,0.746,0.329,0.586,0.550,��,3.5,��
2023/05/06,09:20,0.572,0.837,0.507,1.051,0.745,0.329,0.586,0.549,�쐼,0.6,��
2023/05/06,09:30,0.572,0.838,0.503,1.050,0.746,0.328,0.587,0.548,�k�k��,0.9,��
2023/05/06,09:40,0.572,0.837,0.508,1.053,0.745,0.328,0.587,0.548,�k�k��,2.9,��
2023/05/06,09:50,0.575,0.839,0.506,1.052,0.748,0.330,0.587,0.550,�k�k��,3.4,��
2023/05/06,10:00,0.573,0.838,0.505,1.053,0.744,0.330,0.586,0.548,�k�k��,4.1,��
2023/05/06,10:10,0.572,0.838,0.505,1.052,0.747,0.329,0.586,0.547,�k�k��,3.7,��
2023/05/06,10:20,0.575,0.836,0.502,1.053,0.743,0.330,0.587,0.548,�k�k��,3.4,��
2023/05/06,10:30,0.574,0.837,0.504,1.053,0.745,0.328,0.587,0.549,�k�k��,3.4,��
2023/05/06,10:40,0.574,0.838,0.504,1.054,0.746,0.330,0.589,0.548,�k�k��,3.9,��
2023/05/06,10:50,0.575,0.837,0.503,1.054,0.744,0.330,0.588,0.550,�k�k��,3.6,��
2023/05/06,11:00,0.572,0.838,0.505,1.053,0.743,0.329,0.587,0.550,�k�k��,2.9,��
2023/05/06,11:10,0.573,0.839,0.504,1.053,0.746,0.328,0.586,0.549,�k,3.4,��
2023/05/06,11:20,0.575,0.841,0.504,1.052,0.745,0.329,0.586,0.548,�k,3.9,��
2023/05/06,11:30,0.574,0.839,0.504,1.052,0.746,0.329,0.586,0.549,�k�k��,4.5,��
2023/05/06,11:40,0.574,0.839,0.504,1.051,0.746,0.329,0.587,0.549,�k�k��,4.2,��
2023/05/06,11:50,0.575,0.838,0.503,1.050,0.746,0.328,0.586,0.549,�k�k��,3.9,��
2023/05/06,12:00,0.574,0.838,0.503,1.052,0.746,0.330,0.586,0.550,�k�k��,2.3,��
2023/05/06,12:10,0.574,0.837,0.505,1.051,0.748,0.329,0.586,0.548,�k��,1.7,�L
2023/05/06,12:20,0.573,0.839,0.503,1.051,0.747,0.330,0.587,0.549,�k,1.7,�L
2023/05/06,12:30,0.574,0.838,0.504,1.052,0.746,0.329,0.586,0.549,�k�k��,1.1,�L
2023/05/06,12:40,0.573,0.838,0.503,1.054,0.744,0.329,0.587,0.549,-,CALM,��
2023/05/06,12:50,0.574,0.837,0.504,1.055,0.745,0.330,0.588,0.548,�k��,1.2,��
2023/05/06,13:00,0.574,0.839,0.503,1.053,0.747,0.330,0.586,0.549,�k��,1.1,��
2023/05/06,13:10,0.573,0.838,0.506,1.054,0.747,0.330,0.587,0.549,�k�k��,1.2,��
2023/05/06,13:20,0.574,0.839,0.506,1.056,0.747,0.329,0.586,0.549,�k��,1.2,��
2023/05/06,13:30,0.575,0.839,0.506,1.054,0.745,0.329,0.588,0.548,-,CALM,��
2023/05/06,13:40,0.574,0.841,0.505,1.054,0.745,0.330,0.587,0.549,�k��,0.6,��
2023/05/06,13:50,0.573,0.839,0.507,1.053,0.747,0.330,0.587,0.549,�k�k��,0.9,��
2023/05/06,14:00,0.573,0.839,0.505,1.053,0.748,0.328,0.585,0.549,�k,1.4,��
2023/05/06,14:10,0.574,0.840,0.505,1.055,0.747,0.330,0.583,0.549,�k,1.9,��
2023/05/06,14:20,0.574,0.838,0.504,1.054,0.746,0.330,0.585,0.548,�k,2.6,��
2023/05/06,14:30,0.573,0.837,0.505,1.053,0.748,0.331,0.586,0.548,�k�k��,3.4,��
2023/05/06,14:40,0.574,0.838,0.504,1.055,0.747,0.330,0.588,0.548,�k,4.3,��
2023/05/06,14:50,0.573,0.839,0.504,1.052,0.747,0.328,0.586,0.548,�k,4.0,�L
2023/05/06,15:00,0.573,0.839,0.506,1.054,0.748,0.331,0.586,0.549,�k,3.4,��
2023/05/06,15:10,0.575,0.839,0.505,1.055,0.747,0.329,0.586,0.550,�k,3.2,��
2023/05/06,15:20,0.574,0.841,0.503,1.053,0.746,0.330,0.587,0.549,�k,4.2,��
2023/05/06,15:30,0.575,0.839,0.504,1.051,0.748,0.329,0.586,0.549,�k,4.7,��
2023/05/06,15:40,0.576,0.837,0.505,1.053,0.748,0.329,0.585,0.548,�k,4.9,��
2023/05/06,15:50,0.574,0.838,0.502,1.053,0.746,0.330,0.584,0.550,�k,5.4,�L
2023/05/06,16:00,0.574,0.837,0.505,1.052,0.745,0.329,0.586,0.550,�k,4.8,�L
2023/05/06,16:10,0.573,0.838,0.503,1.055,0.746,0.329,0.585,0.550,�k,5.6,��
2023/05/06,16:20,0.574,0.838,0.504,1.054,0.746,0.328,0.586,0.547,�k�k��,5.6,��
2023/05/06,16:30,0.575,0.839,0.504,1.054,0.747,0.329,0.585,0.549,�k,6.1,��
2023/05/06,16:40,0.573,0.838,0.504,1.055,0.746,0.330,0.586,0.550,�k,5.0,��
2023/05/06,16:50,0.573,0.839,0.505,1.055,0.746,0.329,0.587,0.548,�k,4.9,��
2023/05/06,17:00,0.573,0.840,0.504,1.052,0.745,0.329,0.587,0.549,�k,5.6,��
2023/05/06,17:10,0.573,0.838,0.506,1.056,0.746,0.329,0.587,0.550,�k,6.0,��
2023/05/06,17:20,0.574,0.841,0.505,1.057,0.746,0.328,0.585,0.550,�k�k��,5.1,��
2023/05/06,17:30,0.574,0.840,0.505,1.055,0.748,0.329,0.587,0.550,�k�k��,5.5,��
2023/05/06,17:40,0.576,0.841,0.506,1.055,0.748,0.330,0.588,0.550,�k�k��,5.3,��
2023/05/06,17:50,0.574,0.841,0.506,1.055,0.747,0.330,0.587,0.550,�k�k��,3.9,��
2023/05/06,18:00,0.575,0.842,0.505,1.054,0.749,0.329,0.588,0.550,�k,4.6,��
2023/05/06,18:10,0.575,0.842,0.505,1.053,0.748,0.329,0.587,0.552,�k�k��,5.7,��
2023/05/06,18:20,0.575,0.842,0.507,1.055,0.749,0.329,0.587,0.550,�k�k��,5.5,��
2023/05/06,18:30,0.577,0.842,0.507,1.055,0.749,0.330,0.588,0.551,�k�k��,4.8,��
2023/05/06,18:40,0.575,0.842,0.507,1.054,0.749,0.328,0.588,0.552,�k�k��,6.1,��
2023/05/06,18:50,0.576,0.842,0.506,1.056,0.747,0.329,0.587,0.552,�k�k��,6.7,��
2023/05/06,19:00,0.575,0.842,0.505,1.054,0.749,0.328,0.587,0.551,�k�k��,8.0,��
2023/05/06,19:10,0.575,0.840,0.505,1.054,0.746,0.330,0.588,0.551,�k�k��,6.8,��
2023/05/06,19:20,0.576,0.840,0.505,1.054,0.749,0.330,0.587,0.552,�k�k��,7.5,��
2023/05/06,19:30,0.575,0.840,0.507,1.055,0.749,0.331,0.586,0.551,�k�k��,8.0,��
2023/05/06,19:40,0.576,0.842,0.505,1.055,0.748,0.330,0.588,0.552,�k��,7.6,��
2023/05/06,19:50,0.575,0.842,0.504,1.053,0.748,0.330,0.586,0.552,�k��,5.0,��
2023/05/06,20:00,0.576,0.841,0.507,1.054,0.749,0.329,0.585,0.551,�k�k��,5.2,��
2023/05/06,20:10,0.574,0.842,0.505,1.053,0.746,0.330,0.587,0.551,�k�k��,6.1,�L
2023/05/06,20:20,0.575,0.840,0.505,1.055,0.746,0.331,0.588,0.551,�k�k��,7.0,�L
2023/05/06,20:30,0.574,0.838,0.505,1.055,0.747,0.329,0.587,0.550,�k�k��,7.0,�L
2023/05/06,20:40,0.575,0.839,0.505,1.055,0.745,0.330,0.588,0.551,�k�k��,6.6,�L
2023/05/06,20:50,0.570,0.839,0.505,1.054,0.743,0.329,0.585,0.550,�k�k��,7.2,�L
2023/05/06,21:00,0.572,0.837,0.506,1.054,0.743,0.328,0.585,0.550,�k�k��,6.6,�L
2023/05/06,21:10,0.573,0.835,0.504,1.057,0.745,0.329,0.585,0.548,�k�k��,5.4,�L
2023/05/06,21:20,0.572,0.838,0.504,1.053,0.746,0.330,0.585,0.547,�k�k��,5.3,�L
2023/05/06,21:30,0.574,0.837,0.503,1.054,0.743,0.329,0.586,0.549,�k�k��,4.7,�L
2023/05/06,21:40,0.573,0.835,0.504,1.052,0.743,0.330,0.585,0.550,�k�k��,3.6,�L
2023/05/06,21:50,0.573,0.837,0.503,1.053,0.744,0.331,0.586,0.550,�k�k��,4.9,�L
2023/05/06,22:00,0.574,0.836,0.503,1.053,0.744,0.329,0.587,0.549,�k�k��,4.2,�L
2023/05/06,22:10,0.573,0.835,0.504,1.054,0.742,0.329,0.587,0.550,�k��,4.4,�L
2023/05/06,22:20,0.574,0.836,0.505,1.055,0.744,0.330,0.586,0.550,�k��,5.0,�L
2023/05/06,22:30,0.573,0.835,0.503,1.050,0.744,0.330,0.587,0.549,�k�k��,4.0,�L
2023/05/06,22:40,0.574,0.833,0.504,1.054,0.742,0.329,0.586,0.550,�k�k��,4.5,�L
2023/05/06,22:50,0.571,0.836,0.504,1.055,0.743,0.330,0.586,0.550,�k�k��,4.3,�L
2023/05/06,23:00,0.574,0.834,0.504,1.053,0.743,0.329,0.584,0.549,�k,4.0,�L
2023/05/06,23:10,0.572,0.834,0.503,1.052,0.742,0.330,0.586,0.549,�k�k��,4.6,�L
2023/05/06,23:20,0.573,0.833,0.503,1.053,0.741,0.332,0.586,0.549,�k�k��,4.0,�L
2023/05/06,23:30,0.572,0.834,0.503,1.054,0.741,0.330,0.585,0.550,�k�k��,4.0,�L
2023/05/06,23:40,0.570,0.833,0.503,1.054,0.740,0.331,0.585,0.550,�k�k��,4.3,�L
2023/05/06,23:50,0.571,0.832,0.504,1.051,0.739,0.330,0.585,0.548,�k�k��,4.9,�L
